{"data":{"norad_id":45156,"epoch":"2026-09-20T01:55:34.266144Z","epoch_age_seconds":50624,"freshness":"FRESH","line1":"1 45156U 20008AB  26263.08025771  .00000632  00000+0  17743-2 0  9994","line2":"2 45156  87.8907  17.3751 0001985 110.4700 249.6640 13.10374615320368","mean_motion":13.10374615,"eccentricity":0.0001985,"inclination_deg":87.8907,"raan_deg":17.3751,"arg_perigee_deg":110.47,"mean_anomaly_deg":249.664,"bstar":0.0017743,"rev_number":32036,"period_min":109.89223871679,"perigee_km":1220.2016291316,"apogee_km":1223.2187684695,"semimajor_km":7599.8471988006,"source":"CELESTRAK","updated_at":"2026-09-20T09:00:44.549881Z"}}